• In Hungary
  • List of Countries
  • For 7 days
  • Water Temperature
  • Satellite Maps
  • Weather Map
  • News
  • Weather Widgets
  • user-avatar
    Login

    Hourly Weather Shumen

    Today, 24 October, Tuesday

    Time Temperature Precipitation Wind Pressure Humidity
    00:00 +14°C° 0.3 mm 4 mps 721 mmHg 89%
    01:00 +14°C° 0.3 mm 3 mps 721 mmHg 89%
    02:00 +14°C° 0 mm 4 mps 721 mmHg 91%
    03:00 +14°C° 0.7 mm 4 mps 721 mmHg 91%
    04:00 +14°C° 0.7 mm 4 mps 721 mmHg 92%
    05:00 +14°C° 0.7 mm 4 mps 721 mmHg 93%
    06:00 +14°C° 1.3 mm 4 mps 721 mmHg 92%
    07:00 +14°C° 1.3 mm 4 mps 721 mmHg 91%
    08:00 +14°C° 1.3 mm 4 mps 721 mmHg 89%
    09:00 +15°C° 0.4 mm 5 mps 721 mmHg 85%
    10:00 +15°C° 0.4 mm 5 mps 722 mmHg 81%
    11:00 +16°C° 0.4 mm 5 mps 722 mmHg 77%
    12:00 +16°C° 0.4 mm 6 mps 723 mmHg 76%
    13:00 +16°C° 0.4 mm 6 mps 723 mmHg 74%
    14:00 +16°C° 0.4 mm 6 mps 724 mmHg 73%
    15:00 +16°C° 0.6 mm 6 mps 724 mmHg 76%
    16:00 +15°C° 0.6 mm 5 mps 724 mmHg 80%
    17:00 +14°C° 0.6 mm 5 mps 725 mmHg 83%
    18:00 +14°C° 0.8 mm 5 mps 726 mmHg 85%
    19:00 +14°C° 0.8 mm 5 mps 726 mmHg 86%
    20:00 +13°C° 0.8 mm 5 mps 727 mmHg 88%
    21:00 +13°C° 0.4 mm 6 mps 728 mmHg 88%
    22:00 +13°C° 0.4 mm 6 mps 728 mmHg 88%
    23:00 +11°C° 0.4 mm 6 mps 729 mmHg 88%

    Tomorrow, 25 October, Wednesday

    Time Temperature Precipitation Wind Pressure Humidity
    00:00 +11°C° 0.4 mm 7 mps 729 mmHg 86%
    01:00 +10°C° 0.4 mm 7 mps 730 mmHg 84%
    02:00 +10°C° 0.4 mm 8 mps 730 mmHg 82%
    03:00 +9°C° 0.5 mm 7 mps 731 mmHg 81%
    04:00 +8°C° 0.5 mm 7 mps 731 mmHg 79%
    05:00 +6°C° 0.5 mm 7 mps 731 mmHg 78%
    06:00 +5°C° 1.6 mm 6 mps 732 mmHg 78%
    07:00 +5°C° 1.6 mm 6 mps 733 mmHg 78%
    08:00 +4°C° 1.6 mm 6 mps 733 mmHg 78%
    09:00 +4°C° 1.1 mm 6 mps 734 mmHg 77%
    10:00 +6°C° 1.1 mm 5 mps 734 mmHg 76%
    11:00 +6°C° 1.1 mm 5 mps 735 mmHg 74%
    12:00 +6°C° 0.1 mm 5 mps 735 mmHg 72%
    13:00 +7°C° 0.1 mm 5 mps 735 mmHg 71%
    14:00 +7°C° 0.1 mm 4 mps 736 mmHg 69%
    15:00 +7°C° 0.1 mm 4 mps 736 mmHg 70%
    16:00 +7°C° 0.1 mm 4 mps 736 mmHg 70%
    17:00 +7°C° 0.1 mm 4 mps 737 mmHg 71%
    18:00 +6°C° 0 mm 4 mps 737 mmHg 73%
    19:00 +7°C° 0 mm 3 mps 737 mmHg 74%
    20:00 +7°C° 0 mm 3 mps 737 mmHg 76%
    21:00 +5°C° 0 mm 3 mps 738 mmHg 77%
    22:00 +5°C° 0 mm 3 mps 738 mmHg 79%
    23:00 +5°C° 0 mm 3 mps 738 mmHg 80%

    Day after tomorrow, 26 October, Thursday

    Time Temperature Precipitation Wind Pressure Humidity
    00:00 +4°C° 0 mm 3 mps 738 mmHg 81%
    01:00 +4°C° 0 mm 3 mps 738 mmHg 81%
    02:00 +4°C° 0 mm 3 mps 738 mmHg 82%
    03:00 +5°C° 0 mm 2 mps 738 mmHg 84%
    04:00 +5°C° 0 mm 2 mps 738 mmHg 85%
    05:00 +4°C° 0 mm 2 mps 738 mmHg 86%
    06:00 +5°C° 0 mm 2 mps 738 mmHg 85%
    07:00 +5°C° 0 mm 2 mps 738 mmHg 84%
    08:00 +6°C° 0 mm 2 mps 738 mmHg 83%
    09:00 +8°C° 0 mm 3 mps 738 mmHg 77%
    10:00 +10°C° 0 mm 3 mps 738 mmHg 71%
    11:00 +12°C° 0 mm 3 mps 738 mmHg 65%
    12:00 +12°C° 0 mm 3 mps 738 mmHg 62%
    13:00 +13°C° 0 mm 3 mps 738 mmHg 60%
    14:00 +14°C° 0 mm 3 mps 737 mmHg 57%
    15:00 +14°C° 0 mm 2 mps 737 mmHg 62%
    16:00 +13°C° 0 mm 2 mps 737 mmHg 66%
    17:00 +12°C° 0 mm 2 mps 736 mmHg 70%
    18:00 +12°C° 0 mm 1 mps 736 mmHg 73%
    19:00 +11°C° 0 mm 1 mps 736 mmHg 77%
    20:00 +10°C° 0 mm 1 mps 736 mmHg 80%
    21:00 +10°C° 0 mm 1 mps 736 mmHg 81%
    22:00 +10°C° 0 mm 1 mps 736 mmHg 82%
    23:00 +9°C° 0 mm 1 mps 736 mmHg 83%

    27 October, Friday

    Time Temperature Precipitation Wind Pressure Humidity
    00:00 +9°C° 0 mm 1 mps 736 mmHg 83%
    01:00 +9°C° 0 mm 1 mps 736 mmHg 84%
    02:00 +9°C° 0 mm 1 mps 735 mmHg 84%
    03:00 +9°C° 0 mm 1 mps 735 mmHg 84%
    04:00 +8°C° 0 mm 1 mps 734 mmHg 85%
    05:00 +8°C° 0 mm 1 mps 734 mmHg 85%
    06:00 +9°C° 0 mm 1 mps 734 mmHg 82%
    07:00 +9°C° 0 mm 1 mps 734 mmHg 80%
    08:00 +10°C° 0 mm 1 mps 734 mmHg 78%
    09:00 +12°C° 0 mm 1 mps 734 mmHg 70%
    10:00 +14°C° 0 mm 2 mps 734 mmHg 63%
    11:00 +16°C° 0 mm 2 mps 733 mmHg 56%
    12:00 +16°C° 0 mm 2 mps 733 mmHg 53%
    13:00 +17°C° 0 mm 3 mps 732 mmHg 50%
    14:00 +18°C° 0 mm 3 mps 731 mmHg 48%
    15:00 +17°C° 0 mm 2 mps 730 mmHg 53%
    16:00 +16°C° 0 mm 2 mps 730 mmHg 57%
    17:00 +15°C° 0 mm 2 mps 729 mmHg 62%
    18:00 +14°C° 0 mm 2 mps 729 mmHg 64%
    19:00 +13°C° 0 mm 2 mps 728 mmHg 67%
    20:00 +12°C° 0 mm 2 mps 728 mmHg 70%
    21:00 +12°C° 0 mm 2 mps 728 mmHg 70%
    22:00 +12°C° 0 mm 2 mps 727 mmHg 71%
    23:00 +12°C° 0 mm 2 mps 727 mmHg 71%

    28 October, Saturday

    Time Temperature Precipitation Wind Pressure Humidity
    00:00 +12°C° 0 mm 2 mps 726 mmHg 71%
    01:00 +12°C° 0 mm 2 mps 726 mmHg 70%
    02:00 +10°C° 0 mm 2 mps 725 mmHg 70%
    03:00 +12°C° 0 mm 2 mps 725 mmHg 69%
    04:00 +12°C° 0 mm 2 mps 724 mmHg 68%
    05:00 +12°C° 0 mm 2 mps 724 mmHg 66%
    06:00 +11°C° 0 mm 3 mps 724 mmHg 66%
    07:00 +12°C° 0 mm 3 mps 724 mmHg 66%
    08:00 +12°C° 0 mm 4 mps 724 mmHg 66%
    09:00 +12°C° 0.5 mm 5 mps 724 mmHg 70%
    10:00 +10°C° 0.5 mm 6 mps 725 mmHg 74%
    11:00 +10°C° 0.5 mm 7 mps 725 mmHg 78%
    12:00 +9°C° 0.8 mm 7 mps 725 mmHg 77%
    13:00 +9°C° 0.8 mm 7 mps 725 mmHg 75%
    14:00 +9°C° 0.8 mm 6 mps 725 mmHg 74%
    15:00 +8°C° 0.5 mm 6 mps 725 mmHg 75%
    16:00 +8°C° 0.5 mm 5 mps 725 mmHg 76%
    17:00 +8°C° 0.5 mm 4 mps 725 mmHg 76%
    18:00 +8°C° 0.2 mm 4 mps 725 mmHg 77%
    19:00 +9°C° 0.2 mm 3 mps 726 mmHg 77%
    20:00 +8°C° 0.2 mm 3 mps 726 mmHg 77%
    21:00 +8°C° 0 mm 3 mps 726 mmHg 77%
    22:00 +7°C° 0 mm 3 mps 726 mmHg 77%
    23:00 +7°C° 0 mm 3 mps 726 mmHg 78%

    29 October, Sunday

    Time Temperature Precipitation Wind Pressure Humidity
    00:00 +5°C° 0 mm 3 mps 726 mmHg 79%
    01:00 +5°C° 0 mm 3 mps 726 mmHg 81%
    02:00 +5°C° 0 mm 3 mps 726 mmHg 82%
    03:00 +4°C° 0 mm 3 mps 726 mmHg 84%
    04:00 +5°C° 0 mm 2 mps 726 mmHg 85%
    05:00 +5°C° 0 mm 2 mps 726 mmHg 86%
    06:00 +5°C° 0 mm 2 mps 726 mmHg 84%
    07:00 +5°C° 0 mm 2 mps 726 mmHg 82%
    08:00 +6°C° 0 mm 2 mps 726 mmHg 80%
    09:00 +8°C° 0 mm 2 mps 726 mmHg 73%
    10:00 +9°C° 0 mm 2 mps 726 mmHg 65%
    11:00 +12°C° 0 mm 2 mps 726 mmHg 57%
    12:00 +13°C° 0 mm 2 mps 726 mmHg 53%
    13:00 +12°C° 0 mm 3 mps 726 mmHg 49%
    14:00 +13°C° 0 mm 3 mps 725 mmHg 45%
    15:00 +13°C° 0 mm 2 mps 725 mmHg 50%
    16:00 +12°C° 0 mm 2 mps 725 mmHg 54%
    17:00 +10°C° 0 mm 2 mps 724 mmHg 58%
    18:00 +10°C° 0 mm 2 mps 724 mmHg 63%
    19:00 +9°C° 0 mm 2 mps 724 mmHg 68%
    20:00 +8°C° 0 mm 2 mps 724 mmHg 72%
    21:00 +8°C° 0 mm 2 mps 724 mmHg 76%
    22:00 +8°C° 0 mm 2 mps 724 mmHg 79%
    23:00 +8°C° 0 mm 2 mps 724 mmHg 82%

    30 October, Monday

    Time Temperature Precipitation Wind Pressure Humidity
    00:00 +8°C° 0 mm 2 mps 724 mmHg 84%
    01:00 +9°C° 0 mm 1 mps 724 mmHg 86%
    02:00 +9°C° 0 mm 1 mps 724 mmHg 88%
    03:00 +9°C° 0 mm 1 mps 724 mmHg 89%
    04:00 +8°C° 0 mm 1 mps 723 mmHg 90%
    05:00 +8°C° 0 mm 1 mps 723 mmHg 91%
    06:00 +9°C° 0 mm 1 mps 723 mmHg 89%
    07:00 +9°C° 0 mm 1 mps 723 mmHg 87%
    08:00 +10°C° 0 mm 1 mps 724 mmHg 85%
    09:00 +9°C° 0.1 mm 2 mps 724 mmHg 81%
    10:00 +10°C° 0.1 mm 2 mps 724 mmHg 77%
    11:00 +10°C° 0.1 mm 3 mps 724 mmHg 74%
    12:00 +8°C° 1.3 mm 4 mps 724 mmHg 77%
    13:00 +7°C° 1.3 mm 5 mps 724 mmHg 80%
    14:00 +7°C° 1.3 mm 5 mps 723 mmHg 84%
    15:00 +5°C° 2 mm 6 mps 724 mmHg 85%
    16:00 +5°C° 2 mm 6 mps 724 mmHg 87%
    17:00 +4°C° 2 mm 6 mps 724 mmHg 89%
    18:00 +4°C° 1.2 mm 6 mps 725 mmHg 88%
    19:00 +4°C° 1.2 mm 6 mps 725 mmHg 87%
    20:00 +3°C° 1.2 mm 6 mps 726 mmHg 87%
    21:00 +3°C° 0.4 mm 6 mps 726 mmHg 85%
    22:00 +3°C° 0.4 mm 6 mps 726 mmHg 83%
    23:00 +3°C° 0.4 mm 5 mps 727 mmHg 82%
    Show more